User: anonymous   Login
Location: Unspecified
(0.0000°N, 0.0000°E)
Time: 01:09:26
(UTC+00:00)
Language:

ADEOS II - Orbit

View from above orbital plane
View from above orbital plane
View from above satellite
View from above satellite

Ground track
Ground track

The orbit data is extracted from the following two-line orbital elements,

1 27597U 02056A   19196.88358593 +.00000001 +00000-0 +17577-4 0  9990
2 27597 098.4735 148.8398 0000272 089.1719 270.9494 14.27404393863655
Epoch (UTC): 15 July 2019 21:12:21
Eccentricity: 0.0000272
inclination: 98.4735°
perigee height: 800 km
apogee height: 800 km
right ascension of ascending node: 148.8398°
argument of perigee: 89.1719°
revolutions per day: 14.27404393
mean anomaly at epoch: 270.9494°
orbit number at epoch: 86365

The dashed part of the orbit path shows where the satellite is in the earth's shadow,  

DLR